sat.trackr.live / text

‹ back to catalog

STARLINK-32483

NORAD 61856 · 2024-202M

PAYLOAD ACTIVE UNKNOWN

§ Identity

Operator
Country
US
Launch date
2024-11-07
Launch site
AFETR
Launch vehicle
Mass (kg)
RCS (m²)

Purposes: comms

External: N2YO · Heavens-Above · Gunter

§ Orbital elements

Epoch: 2026-05-24T12:03:39.237408Z

Period
94.27 min
Inclination
43.0010°
Eccentricity
0.0001326
Mean motion
15.27581733 rev/d
Perigee alt
482.1 km
Apogee alt
484.0 km
Semi-major
6,861.2 km
B*
9.1806e-5
RAAN
169.7164°
Arg perigee
273.5852°
Mean anomaly
86.4848°
Rev number
8,693

§ Raw data

STARLINK-324831 61856U 24202M   26144.50253747  .00002265  00000+0  91806-4 0  99982 61856  43.0010 169.7164 0001326 273.5852  86.4848 15.27581733 86930

JSON: /api/v1/satellites/61856 · /tle

For live sub-satellite position, see the globe view (requires WebGL).

§ Visibility from observer

Set your observer location to see the next 7 days of passes ≥ 10°. The values pass through the URL so the page stays shareable.

No JS? Fill the form by hand. The geolocation button needs JavaScript.